Погода в Курортном

Россия / Республика Крым     44°54′47″N   35°11′31″E
темп.,
°C
ветер,
м/с
пор.,
м/с
влажн.,
%
обл.,
%
осадки,
мм/ч
давл.,
гПа
погр.,
м
24 января, вс
вс2400:00+7ю568557 0.0 1018129
03:00+7ю578382 0.0 1017140
06:00+7ююв4686100 0.0 1015109
09:00+7ююв5889100 0.0 1015259
12:00+9ююв61085100 0.0 1014589
15:00+9ю5781100 0.0 1013392
18:00+7ю4688100 0.0 1013158
21:00+7ююз4687100 0.0 1013154
25 января, пн
пн2500:00+7ююз349368 0.0 1013137
03:00+7ююз349340 0.0 101390
06:00+7ююз34882 0.0 101363
09:00+7ююз348622 0.0 101362
12:00+10ю487776 0.0 1012405
15:00+10ююв5107588 0.0 1010480
18:00+8ю61083100 0.0 1009364
21:00+8ююз51388100 0.1 1007544
26 января, вт
вт2600:00+9ю111891100 2.6 1008927
03:00+8юз7138483 4.1 1010474
06:00+6ююз6117875 0.0 1011353
09:00+7ююз598188 0.0 1012311
12:00+10ююз51279100 0.0 1012580
15:00+10ю51177100 0.0 1010519
18:00+9ююз71088100 0.1 1010327
21:00+9ююз4889100 0.6 1010232
27 января, ср
ср2700:00+8ю4695100 0.2 1009182
03:00+8ю4796100 0.4 1006192
06:00+9юв4587100 0.1 1004127
09:00+9юв4588100 0.2 1003121
12:00+11ю5778100 0.0 1002316
15:00+11ююв41073100 0.2 998519
18:00+9ю4883100 0.0 998357
21:00+8ю41089100 0.1 999371
28 января, чт
чт2800:00+8юз61188100 0.0 1000630
03:00+6з2583100 0.0 1002203
06:00+4зсз5772100 0.0 1003559
09:00+2зсз111571100 0.0 1005542
12:00+3зсз81266100 0.0 1007776
15:00+4зсз71059100 0.0 10071299
18:00+2з5966100 0.0 1009834
21:00+1з367281 0.0 1011386